Regional Weather Roundup
Issued by NWS

Home | Current Version | Previous Version | Text Only | Print | Product List | Glossary Off
Versions: 1 2 3 4 5 6 7 8 9 10 11 12 13 14 15 16 17 18 19 20 21 22 23 24 25 26 27 28 29 30 31 32 33 34 35 36 37 38 39 40 41 42 43 44 45 46 47 48 49 50

000
ASUS43 KLSX 270307
RWRMO

WEATHER SUMMARY FOR MISSOURI
NATIONAL WEATHER SERVICE SPRINGFIELD MO
1000 PM CDT TUE MAY 26 2015

NOTE: "FAIR" INDICATES FEW OR NO CLOUDS BELOW 12,000 FEET WITH NO
       SIGNIFICANT WEATHER AND/OR OBSTRUCTIONS TO VISIBILITY.
       CURRENT SKY AND/OR WEATHER CONDITIONS ARE NOT AVAILABLE FOR
       CHILLICOTHE AND FARMINGTON.

MOZ001>031-035>038-043-044-053-054-270400-
...NORTHERN AND WESTERN MISSOURI...

CITY           SKY/WX    TMP DP  RH WIND       PRES   REMARKS
KANSAS CTY INT PTCLDY    67  60  78 W5        29.92R
KANSAS C DTWN  MOCLDY    73  59  61 W5        29.91R
LEE`S SUMMIT   CLOUDY    72  58  61 S6        29.93R
ST JOSEPH      PTCLDY    65  59  81 N8        29.91R
CHILLICOTHE      N/A     67  62  84 CALM      29.92R
KIRKSVILLE     MOCLDY    65  62  90 SW5       29.91R

$$
MOZ066>068-077>081-088>096-101>105-270400-
...SOUTHWEST MISSOURI...

CITY           SKY/WX    TMP DP  RH WIND       PRES   REMARKS
SPRINGFIELD    CLOUDY    69  62  78 S6        30.00R
JOPLIN         PTCLDY    68  63  84 NW5       30.00R

$$
MOZ032>034-039>042-045>050-055>058-069>072-270400-
...CENTRAL MISSOURI...

CITY           SKY/WX    TMP DP  RH WIND       PRES   REMARKS
COLUMBIA       CLEAR     67  61  81 S8        29.95R
JEFFERSON CITY CLEAR     72  60  66 S5        29.95R
ROLLA          CLEAR     68  61  78 S9        29.98R
SEDALIA        PTCLDY    70  61  73 S8        29.95R
WHITEMAN AFB   CLOUDY    70  63  79 SW6       29.93R
WARRENSBURG    CLOUDY    68  63  83 S5        29.93S
OSAGE BEACH    PTCLDY    70  61  73 S6        29.98R

$$
MOZ051-052-059>065-270400-
...EAST CENTRAL MISSOURI...

CITY           SKY/WX    TMP DP  RH WIND       PRES   REMARKS
ST LOUIS INTL  PTCLDY    74  60  61 S9        29.96R
SPIRIT OF STL  CLEAR    N/A N/A N/A S9        29.95R
ST CHARLES     CLEAR     70  61  73 S10       29.93R

$$
MOZ072>076-082>087-097>100-106>115-270400-
...SOUTH CENTRAL AND SOUTHEAST MISSOURI...

CITY           SKY/WX    TMP DP  RH WIND       PRES   REMARKS
CAPE GIRARDEAU CLEAR     69  65  86 S9        30.05R
FARMINGTON     CLEAR     66  61  82 S7        30.06R
POPLAR BLUFF   CLEAR     71  64  78 S7        30.03R
WEST PLAINS    PTCLDY    69  61  75 S7        30.05R

$$


USA.gov is the U.S. government's official web portal to all federal, state and local government web resources and services.